FW3734 Weather Reports


Display with metric or nautical units.
time (UTC)temp
F
wind
direction
speed
MPH
gust
MPH
rain 1hr
in
rain 24hr
in
rain mn
in
humidity
%
barometer
mb
20260504044546 67 208 0.0 7.0 0.00 0.00 0.00 55 1008.0
20260504043047 67 186 0.0 3.0 0.00 0.00 0.00 54 1008.5
20260504041542 68 184 0.0 7.0 0.00 0.00 0.00 53 1008.8
20260504040041 68 242 0.0 3.0 0.00 0.00 0.00 52 1008.7
20260504034540 68 168 0.0 2.0 0.00 0.00 0.00 52 1009.5
20260504033140 68 231 0.0 3.0 0.00 0.00 0.00 52 1009.5
20260504031552 68 261 0.0 3.0 0.00 0.00 0.00 51 1009.6
20260504030042 68 207 0.0 2.0 0.00 0.00 0.00 51 1009.4
20260504024539 68 212 0.0 0.0 0.00 0.00 0.00 50 1009.2
20260504023039 69 207 0.0 2.0 0.00 0.00 0.00 50 1009.2
20260504021538 69 207 0.0 0.0 0.00 0.00 0.00 50 1009.2
20260504020038 70 207 0.0 0.0 0.00 0.00 0.00 49 1009.0
20260504014541 70 207 0.0 0.0 0.00 0.00 0.00 47 1008.9
20260504013041 71 213 0.0 0.0 0.00 0.00 0.00 46 1008.8
20260504011540 72 216 0.0 0.0 0.00 0.00 0.00 45 1008.7
20260504010036 72 220 0.0 0.0 0.00 0.00 0.00 44 1008.8
20260504004536 73 220 0.0 3.0 0.00 0.00 0.00 43 1008.7
20260504003033 74 190 0.0 0.0 0.00 0.00 0.00 41 1008.8
20260504001537 75 205 0.0 1.0 0.00 0.00 0.00 40 1008.7
20260504000032 76 200 0.0 5.0 0.00 0.00 0.00 38 1008.8
20260503234546 76 237 0.0 7.0 0.00 0.00 0.00 37 1008.9
20260503233037 77 218 0.0 13.0 0.00 0.00 0.00 36 1009.0
20260503231533 77 159 0.0 1.0 0.00 0.00 0.00 35 1009.1
20260503230031 77 225 0.0 14.0 0.00 0.00 0.00 34 1009.2
20260503224524 77 286 0.0 6.0 0.00 0.00 0.00 34 1009.4
20260503223022 78 220 0.0 4.0 0.00 0.00 0.00 32 1009.4
20260503221527 78 196 0.0 9.0 0.00 0.00 0.00 32 1009.7
20260503220018 78 208 0.0 9.0 0.00 0.00 0.00 32 1009.7
20260503214515 77 186 0.0 17.0 0.00 0.00 0.00 32 1009.8
20260503213013 77 154 0.0 12.0 0.00 0.00 0.00 32 1009.8
20260503211510 77 173 1.0 7.0 0.00 0.00 0.00 33 1009.9
20260503210008 76 208 0.0 10.0 0.00 0.00 0.00 33 1010.1
20260503204505 75 149 0.0 7.0 0.00 0.00 0.00 34 1010.5
20260503203003 75 203 0.0 9.0 0.00 0.00 0.00 35 1010.7
20260503201559 75 213 0.0 8.0 0.00 0.00 0.00 36 1011.1
20260503200057 74 196 1.0 10.0 0.00 0.00 0.00 35 1011.7
20260503194559 73 199 1.0 14.0 0.00 0.00 0.00 38 1012.0
20260503193049 72 195 0.0 7.0 0.00 0.00 0.00 38 1012.3
20260503191547 72 202 1.0 13.0 0.00 0.00 0.00 37 1012.8
20260503190041 71 170 0.0 16.0 0.00 0.00 0.00 38 1013.3
20260503184538 70 156 0.0 10.0 0.00 0.00 0.00 39 1013.6
20260503183034 70 203 0.0 8.0 0.00 0.00 0.00 38 1014.0
20260503181531 69 55 0.0 10.0 0.00 0.00 0.00 39 1014.3
20260503180028 69 252 0.0 9.0 0.00 0.00 0.00 40 1014.9
20260503174523 67 151 0.0 5.0 0.00 0.00 0.00 41 1015.4
20260503173017 66 286 0.0 8.0 0.00 0.00 0.00 45 1016.2
20260503171515 66 211 1.0 6.0 0.00 0.00 0.00 43 1016.6
20260503110111 44 310 0.0 3.0 0.00 0.00 0.00 79 1018.3
20260503081546 44 310 0.0 0.0 0.00 0.00 0.00 84 1018.9